User: anonymous   Login
Location: Belfast
(54.5830°N, 5.9330°W)
Time: 14:29:08
(UTC+00:00)
Language:

Coronas F rocket - Orbit

View from above orbital plane
View from above orbital plane
View from above satellite
View from above satellite

Ground track
Ground track

The orbit data is extracted from the following two-line orbital elements,

1 26874U 01032B   16339.53842659  .00042103 -50554-6  12157-3 0  9992
2 26874  82.4566  93.8841 0004188 267.3884  92.6910 15.92810691862647
Epoch (UTC): 04 December 2016 12:55:20
Eccentricity: 0.0004188
inclination: 82.4566°
perigee height: 291 km
apogee height: 297 km
right ascension of ascending node: 93.8841°
argument of perigee: 267.3884°
revolutions per day: 15.92810691
mean anomaly at epoch: 92.6910°
orbit number at epoch: 86264

The dashed part of the orbit path shows where the satellite is in the earth's shadow,  

DLR